Falfurrias, TX

5:58 AM CST on November 13, 2019 (GMT -0600)
Falfurrias

Weather History for KBKS - September, 2019

Change the Weather History Date:

Tuesday, September 24, 2019

  Actual Average (KNQI) Record (KNQI)
Temperature  
Mean Temperature 84 °F -  
Max Temperature 94 °F 86 °F 100 °F (2011)
Min Temperature 76 °F 66 °F 59 °F (1999)
Cooling Degree Days 20    
Growing Degree Days 34 (Base 50)    
Moisture  
Dew Point 74 °F    
Average Humidity 75    
Maximum Humidity 92    
Minimum Humidity 47    
Precipitation  
Precipitation 0.00 in - - ()
Sea Level Pressure  
Sea Level Pressure 29.89 in    
Wind  
Wind Speed 5 mph ()    
Max Wind Speed 15 mph    
Max Gust Speed 21 mph    
Visibility 9.7 miles    
Events      
Averages and records for this station are not official NWS values.
T = Trace of Precipitation, MM = Missing Value Source: Averaged Metar Reports

Daily Weather History Graph

Daily Weather History Graph

Search for Another Location

Airport or City:

Astronomy

Sep. 24, 2019 Rise Set
Actual Time 7:21 AM CDT 7:26 PM CDT
Civil Twilight 6:58 AM CDT 7:50 PM CDT
Nautical Twilight 6:31 AM CDT 8:17 PM CDT
Astronomical Twilight 6:04 AM CDT 8:44 PM CDT
Moon 2:40 AM CDT (9/24) 4:43 PM CDT (9/24)
Length of Visible Light 12h 51m
Length of Day
12h 05m
Waning Crescent, 23% of the Moon is Illuminated
Sep 24
Waning Crescent
Sep 28
New
Oct 5
First Quarter
Oct 13
Full
Oct 21
Last Quarter

Hourly Weather History & Observations

Time (CDT) Temp. Heat Index Dew Point Humidity Pressure Visibility Wind Dir Wind Speed Gust Speed Precip Events Conditions
12:15 AM 78.8 °F - 74.5 °F 87% 29.96 in 10.0 mi ESE 3.5 mph - N/A   Clear
12:35 AM 78.1 °F - 74.5 °F 89% 29.95 in 10.0 mi ESE 3.5 mph - N/A   Clear
12:55 AM 78.4 °F - 74.7 °F 88% 29.95 in 10.0 mi ESE 3.5 mph - N/A   Clear
1:15 AM 78.8 °F - 75.2 °F 89% 29.94 in 10.0 mi SE 4.6 mph - N/A   Clear
1:35 AM 79.7 °F - 75.6 °F 87% 29.94 in 10.0 mi SSE 4.6 mph - N/A   Clear
1:55 AM 79.3 °F - 75.4 °F 88% 29.94 in 10.0 mi SSE 5.8 mph - N/A   Clear
2:15 AM 78.8 °F - 75.2 °F 89% 29.94 in 10.0 mi South 3.5 mph - N/A   Clear
2:35 AM 78.8 °F - 75.2 °F 89% 29.93 in 10.0 mi SSE 3.5 mph - N/A   Clear
2:55 AM 78.3 °F - 74.7 °F 89% 29.93 in 10.0 mi Calm Calm - N/A   Clear
3:15 AM 77.9 °F - 74.5 °F 89% 29.92 in 10.0 mi South 3.5 mph - N/A   Clear
3:35 AM 78.1 °F - 75.2 °F 91% 29.91 in 10.0 mi SSE 4.6 mph - N/A   Clear
3:55 AM 78.8 °F - 75.4 °F 89% 29.91 in 10.0 mi SE 5.8 mph - N/A   Clear
4:15 AM 78.8 °F - 75.4 °F 89% 29.91 in 10.0 mi SE 5.8 mph - N/A   Clear
4:35 AM 78.8 °F - 75.6 °F 90% 29.91 in 10.0 mi Calm Calm - N/A   Clear
4:55 AM 78.3 °F - 75.2 °F 90% 29.92 in 10.0 mi Calm Calm - N/A   Clear
5:15 AM 77.5 °F - 74.7 °F 91% 29.92 in 10.0 mi Calm Calm - N/A   Clear
5:35 AM 77.5 °F - 74.7 °F 91% 29.93 in 10.0 mi Calm Calm - N/A   Clear
5:55 AM 77.0 °F - 74.3 °F 91% 29.92 in 10.0 mi NE 3.5 mph - N/A   Clear
6:15 AM 76.6 °F - 73.9 °F 91% 29.92 in 7.0 mi East 4.6 mph - N/A   Clear
6:35 AM 76.6 °F - 74.1 °F 92% 29.93 in 10.0 mi Calm Calm - N/A   Clear
6:55 AM 76.5 °F - 73.9 °F 92% 29.93 in 7.0 mi Calm Calm - N/A   Scattered Clouds
7:15 AM 76.5 °F - 73.9 °F 92% 29.93 in 10.0 mi Calm Calm - N/A   Clear
7:35 AM 76.3 °F - 73.8 °F 92% 29.93 in 7.0 mi NNW 3.5 mph - N/A   Clear
7:55 AM 76.3 °F - 73.8 °F 92% 29.93 in 10.0 mi Calm Calm - N/A   Scattered Clouds
8:15 AM 76.6 °F - 74.3 °F 92% 29.94 in 10.0 mi ENE 3.5 mph - N/A   Clear
8:35 AM 76.6 °F - 74.1 °F 92% 29.94 in 7.0 mi Calm Calm - N/A   Clear
8:55 AM 76.6 °F - 74.3 °F 92% 29.94 in 7.0 mi Calm Calm - N/A   Clear
9:15 AM 77.0 °F - 74.5 °F 92% 29.95 in 7.0 mi Calm Calm - N/A   Clear
9:35 AM 77.9 °F - 75.2 °F 91% 29.96 in 7.0 mi Calm Calm - N/A   Clear
9:55 AM 78.8 °F - 75.6 °F 90% 29.96 in 10.0 mi Calm Calm - N/A   Clear
10:15 AM 81.0 °F 87.7 °F 76.8 °F 87% 29.95 in 10.0 mi ESE 3.5 mph - N/A   Clear
10:35 AM 84.0 °F 93.7 °F 77.0 °F 79% 29.95 in 10.0 mi SSE 6.9 mph - N/A   Clear
10:55 AM 85.8 °F 96.8 °F 77.2 °F 75% 29.95 in 10.0 mi SSE 5.8 mph - N/A   Clear
11:15 AM 86.5 °F 97.8 °F 77.0 °F 73% 29.95 in 10.0 mi SE 9.2 mph - N/A   Clear
11:55 AM 88.9 °F 98.6 °F 74.7 °F 63% 29.93 in 10.0 mi SSE 8.1 mph - N/A   Clear
12:15 PM 90.5 °F 100.9 °F 74.7 °F 60% 29.93 in 10.0 mi SE 8.1 mph - N/A   Clear
12:35 PM 91.6 °F 100.5 °F 73.4 °F 55% 29.93 in 10.0 mi SSE 9.2 mph 16.1 mph N/A   Clear
12:55 PM 92.3 °F 99.2 °F 71.4 °F 50% 29.91 in 10.0 mi SSE 13.8 mph 18.4 mph N/A   Clear
1:15 PM 92.8 °F 99.2 °F 70.3 °F 48% 29.90 in 10.0 mi SSE 12.7 mph - N/A   Clear
1:35 PM 93.4 °F 100.3 °F 71.1 °F 48% 29.88 in 10.0 mi SSE 12.7 mph 17.3 mph N/A   Clear
1:55 PM 92.1 °F 100.5 °F 72.7 °F 53% 29.87 in 10.0 mi ESE 9.2 mph - N/A   Scattered Clouds
2:15 PM 93.6 °F 102.5 °F 73.2 °F 51% 29.87 in 10.0 mi SE 8.1 mph - N/A   Scattered Clouds
2:35 PM 93.7 °F 102.9 °F 73.4 °F 51% 29.86 in 10.0 mi SE 8.1 mph - N/A   Scattered Clouds
2:55 PM 92.8 °F 102.8 °F 73.8 °F 54% 29.85 in 10.0 mi East 12.7 mph 17.3 mph N/A   Scattered Clouds
3:15 PM 91.4 °F 100.1 °F 73.4 °F 55% 29.85 in 10.0 mi SE 12.7 mph 18.4 mph N/A   Mostly Cloudy
3:35 PM 92.5 °F 101.3 °F 73.2 °F 53% 29.84 in 10.0 mi SE 12.7 mph - N/A   Scattered Clouds
3:55 PM 93.4 °F 102.8 °F 73.4 °F 52% 29.83 in 10.0 mi SE 15.0 mph 18.4 mph N/A   Clear
4:15 PM 93.4 °F 102.1 °F 72.9 °F 51% 29.83 in 10.0 mi SE 12.7 mph 18.4 mph N/A   Clear
4:35 PM 93.6 °F 100.1 °F 70.7 °F 47% 29.81 in 10.0 mi ESE 15.0 mph 18.4 mph N/A   Clear
4:55 PM 93.9 °F 100.8 °F 71.1 °F 47% 29.82 in 10.0 mi SE 11.5 mph - N/A   Clear
5:15 PM 93.4 °F 102.8 °F 73.2 °F 52% 29.82 in 10.0 mi East 13.8 mph 19.6 mph N/A   Clear
5:35 PM 92.5 °F 101.3 °F 72.9 °F 53% 29.81 in 10.0 mi ESE 13.8 mph 19.6 mph N/A   Clear
5:55 PM 92.1 °F 100.5 °F 72.9 °F 53% 29.80 in 10.0 mi ESE 15.0 mph 20.7 mph N/A   Clear
6:15 PM 90.3 °F 99.3 °F 73.6 °F 58% 29.81 in 10.0 mi ESE 13.8 mph 18.4 mph N/A   Clear
6:35 PM 90.0 °F 99.0 °F 73.9 °F 59% 29.82 in 10.0 mi ESE 12.7 mph - N/A   Clear
6:55 PM 88.9 °F 97.6 °F 73.8 °F 61% 29.83 in 10.0 mi ESE 13.8 mph 19.6 mph N/A   Clear
7:15 PM 88.0 °F 96.0 °F 73.6 °F 62% 29.83 in 10.0 mi ESE 10.4 mph - N/A   Clear
7:35 PM 86.7 °F 94.6 °F 73.8 °F 65% 29.83 in 10.0 mi ESE 6.9 mph - N/A   Clear
7:55 PM 86.0 °F 93.8 °F 73.8 °F 67% 29.83 in 10.0 mi ESE 8.1 mph - N/A   Clear
8:15 PM 84.7 °F 92.1 °F 73.9 °F 70% 29.83 in 10.0 mi ESE 5.8 mph - N/A   Clear
8:35 PM 84.4 °F 91.7 °F 74.1 °F 71% 29.84 in 10.0 mi ESE 8.1 mph - N/A   Clear
8:55 PM 84.2 °F 91.6 °F 74.1 °F 72% 29.85 in 10.0 mi ESE 6.9 mph - N/A   Clear
9:15 PM 83.5 °F 90.6 °F 74.3 °F 74% 29.86 in 10.0 mi East 6.9 mph - N/A   Clear
9:35 PM 82.6 °F 89.1 °F 74.5 °F 76% 29.87 in 10.0 mi East 3.5 mph - N/A   Clear
9:55 PM 81.9 °F 88.0 °F 74.5 °F 78% 29.87 in 10.0 mi ESE 4.6 mph - N/A   Clear
10:15 PM 81.1 °F 86.8 °F 74.5 °F 80% 29.87 in 10.0 mi ESE 4.6 mph - N/A   Clear
10:35 PM 80.6 °F 85.9 °F 74.5 °F 82% 29.87 in 10.0 mi East 3.5 mph - N/A   Clear
10:55 PM 80.2 °F 85.2 °F 74.5 °F 83% 29.88 in 10.0 mi Calm Calm - N/A   Clear
11:15 PM 79.7 °F - 74.5 °F 84% 29.88 in 10.0 mi ESE 3.5 mph - N/A   Clear
11:35 PM 79.5 °F - 74.5 °F 84% 29.88 in 10.0 mi ESE 3.5 mph - N/A   Clear
11:55 PM 79.7 °F - 74.5 °F 84% 29.88 in 10.0 mi SE 5.8 mph - N/A   Clear